Weather Roundup
Issued by NWS Chicago, IL

Home | Current Version | Previous Version | Graphics & Text | Print | Product List | Glossary On
Versions: 1 2 3 4 5 6 7 8 9 10 11 12 13 14 15 16 17 18 19 20 21 22 23 24 25 26 27 28 29 30 31 32 33 34 35 36 37 38 39 40 41 42 43 44 45 46 47 48 49 50
000
NZUS59 KLOT 271200
HRRLOT

CHICAGO AREA WEATHER ROUNDUP
NATIONAL WEATHER SERVICE CHICAGO/ROMEOVILLE IL
700 AM CDT WED AUG 27 2014

NOTE: "FAIR" INDICATES FEW OR NO CLOUDS BELOW 12,000 FEET WITH NO
SIGNIFICANT WEATHER AND/OR OBSTRUCTIONS TO VISIBILITY.

* THESE STATIONS ARE NOT UNDER NWS QUALITY CONTROL. THEY ALSO MAY NOT
  REPORT WEATHER SUCH AS PRECIPITATION OR FOG.

ILZ005-006-012>014-019>023-271300-
NORTHEAST ILLINOIS

CITY           SKY/WX    TMP DP  RH WIND       PRES   REMARKS
OHARE          MOCLDY    68  61  78 N6        30.14R
6HR MIN TEMP:  68; 6HR MAX TEMP:  72;

MIDWAY         MOCLDY    72  64  76 NE6       30.13R
6HR MIN TEMP:  71; 6HR MAX TEMP:  74;

AURORA         PTCLDY    65  61  87 N7        30.14R
6HR MIN TEMP:  65; 6HR MAX TEMP:  69;

WAUKEGAN       PTCLDY    63  60  90 N5        30.14R
6HR MIN TEMP:  63; 6HR MAX TEMP:  65;

DUPAGE AIRPORT PTCLDY    65  62  90 N5        30.14R
6HR MIN TEMP:  65; 6HR MAX TEMP:  69;

WHEELING       MOCLDY    68  63  84 N6        30.16R
6HR MIN TEMP:  66; 6HR MAX TEMP:  70;

NORTHERLY IS     N/A     70  62  76 NE6         N/A
$$

WIZ051-052-058>065-066-070>072-271300-
SOUTHEAST WISCONSIN

CITY           SKY/WX    TMP DP  RH WIND       PRES   REMARKS
MILWAUKEE      PTCLDY    63  57  81 NW3       30.16R
6HR MIN TEMP:  62; 6HR MAX TEMP:  67;

KENOSHA*       PTCLDY    61  59  93 CALM      30.16R
RACINE*        PTCLDY    63  58  83 NW3       30.17R
$$

INZ001>003-010>013-019-020-271300-
NORTHWEST INDIANA

CITY           SKY/WX    TMP DP  RH WIND       PRES   REMARKS
GARY*          PTCLDY    68  66  94 CALM      30.14R
MICHIGAN CITY* NOT AVBL
RENSSELAER*    NOT AVBL
VALPARAISO     PTCLDY    66  61  84 CALM      30.14R
$$

LMZ740>746-271300-
SOUTHERN LAKE MICHIGAN

STATION/POSITION TIME  SKY/WX   TEMP WIND        PRES    VSBY
                                AIR  DIR/SP/G
                 (UTC)          (F)  (DEG/KT/KT) (MB)    (MI)
HARRISON CRIB    1100            70   60/  6/  8   N/A
BURNHAM HARBOR   1200            71   50/  3/  7   N/A
CALUMET HARBOR   1100            71   50/  3/  4 1019.0R
BURNS HARBOR     NOT AVBL
MICHIGAN CITY    1100            68   50/  4/  4   N/A
$$

ABBREVIATIONS USED IN REMARKS
   TC - TEMPERATURE IN CELSIUS
  WCI - WIND CHILL INDEX
   HX - HEAT INDEX
  VSB - VISIBILITY
$$



USA.gov is the U.S. government's official web portal to all federal, state and local government web resources and services.